Tracking 18840 objects as of 18-November-2017
HD Live streaming from Space Station
objects crossing your sky now

FENGYUN 1C DEB

Track FENGYUN 1C DEB now!
10-day predictions


NORAD ID: 32228
Int'l Code: 1999-025CWA
Perigee: 680.5 km
Apogee: 815.9 km
Inclination: 98.7 °
Period: 99.6 minutes
Semi major axis: 7119 km
RCS: 0.0129 m2 (small)
Launch date: May 10, 1999
Source: People's Republic of China (PRC)
Launch site: Taiyaun Space Center, China (TSC)

Note: This is SATELLITE DEBRIS
aabbcc
Your satellite tracking list
Your tracking list is empty




NASA's NSSDC Master Catalog

Two Line Element Set (TLE):
1 32228U 99025CWA 17320.38083144  .00001701  00000-0  47131-3 0  9994
2 32228  98.6567  14.2789 0095095 122.7665 238.2733 14.45295051545275
Source of the keplerian elements: AFSPC